Overview Statistics Trail Chart Weather Telemetry Raw packets
 

This is the latest recevied weather packets stored in our database for station/object KY0TEQ-13. If no packets are shown the sender has not sent any weather packets the latest 10 day(s).

<< 45 46 47 48 49 50 51 >>
Time Temp. Humidity Pressure Rain* Wind** Luminosity Snow
1788378725 25° C 29% 1309 hPa 0 mm - 300 W/m² -
1788378424 23.89° C 29% 1309.3 hPa 0 mm - 813 W/m² -
1788378119 23.89° C 29% 1309.4 hPa 0 mm - 837 W/m² -
1788377815 23.89° C 29% 1309.4 hPa 0 mm - 159 W/m² -
1788377511 23.89° C 29% 1309.4 hPa 0 mm - 791 W/m² -
1788377208 24.44° C 28% 1309.5 hPa 0 mm - 766 W/m² -
1788376903 23.89° C 28% 1309.5 hPa 0 mm - 767 W/m² -
1788376597 23.33° C 30% 1309.5 hPa 0 mm - 152 W/m² -
1788376297 24.44° C 28% 1309.6 hPa 0 mm - 130 W/m² -
1788375992 25° C 28% 1309.7 hPa 0 mm - 326 W/m² -
1788375687 24.44° C 28% 1309.7 hPa 0 mm - 763 W/m² -
1788375383 24.44° C 29% 1309.6 hPa 0 mm - 737 W/m² -
1788375079 24.44° C 29% 1310 hPa 0 mm - 752 W/m² -
1788374774 24.44° C 27% 1310.4 hPa 0 mm - 763 W/m² -
1788374469 23.89° C 28% 1310.2 hPa 0 mm - 706 W/m² -
1788374166 25° C 27% 1310.2 hPa 0 mm - 718 W/m² -
1788373862 23.89° C 27% 1310.4 hPa 0 mm - 701 W/m² -
1788373552 23.89° C 28% 1310.5 hPa 0 mm - 697 W/m² -
1788373249 23.89° C 28% 1310.5 hPa 0 mm - 697 W/m² -
1788372945 23.89° C 28% 1310.5 hPa 0 mm - 697 W/m² -
1788372643 23.89° C 29% 1310.5 hPa 0 mm - 689 W/m² -
1788372338 23.33° C 32% 1310.7 hPa 0 mm - 682 W/m² -
1788372034 23.33° C 30% 1311 hPa 0 mm - 102 W/m² -
1788371733 23.89° C 32% 1310.8 hPa 0 mm - 681 W/m² -
1788371430 23.89° C 31% 1311.1 hPa 0 mm - 668 W/m² -

* Rain latest hour (hover to see other rain measurements)
** Current wind speed in m/s (hover to see current wind gust speed)